Stations météo

réclame
Mon MeteoGroup
Voorschoten AWS, Pays-Bas (6215): Température de l'air & dewpoint: 26.03.2020 11:00:00 - 01.04.2020 11:00:00 (CEST)Voorschoten AWS, Pays-Bas (6215): Température de l'air 5cm: 26.03.2020 11:00:00 - 01.04.2020 11:00:00 (CEST)Voorschoten AWS, Pays-Bas (6215): Vitesse du vent & gusts: 26.03.2020 11:00:00 - 01.04.2020 11:00:00 (CEST)Voorschoten AWS, Pays-Bas (6215): Direction du vent: 26.03.2020 11:00:00 - 01.04.2020 11:00:00 (CEST)Voorschoten AWS, Pays-Bas (6215): reduced air pressure: 26.03.2020 11:00:00 - 01.04.2020 11:00:00 (CEST)Voorschoten AWS, Pays-Bas (6215): visibility: 26.03.2020 11:00:00 - 01.04.2020 11:00:00 (CEST)Voorschoten AWS, Pays-Bas (6215): Quantités de précipitations: 26.03.2020 11:00:00 - 01.04.2020 11:00:00 (CEST)
Date & Time tt [°C] td [°C] tt 5cm [°C] ff [km/h] ff [knt] fx [km/h] fx [knt] dd ppp [hPa] vv [km] rr [mm]
01.04.2020 11:00:00 6,6 0,1 7,6 7 4 - - W 1024,4 32 -
01.04.2020 10:00:00 5,0 1,1 4,7 0 0 7 4 N 1024,7 31 0,0
01.04.2020 09:00:00 1,9 0,8 0,5 4 2 7 4 SSW 1024,7 17 0,0
01.04.2020 08:00:00 -2,1 -2,8 -3,5 4 2 4 2 SSW 1024,9 11 0,0
01.04.2020 07:00:00 -3,2 -3,6 -4,7 0 0 4 2 N 1025,3 11 0,0
01.04.2020 06:00:00 -3,0 -3,3 -4,7 4 2 4 2 SSW 1025,4 3,1 0,0
01.04.2020 05:00:00 -3,0 -3,6 -4,9 4 2 4 2 NW 1026,0 16 0,0
01.04.2020 04:00:00 -2,9 -3,4 -5,0 4 2 4 2 W 1026,6 13 0,0
01.04.2020 03:00:00 -1,9 -2,8 -4,3 4 2 7 4 NNW 1027,2 1,9 0,0
01.04.2020 02:00:00 -0,8 -2,1 -3,9 4 2 11 6 NNE 1027,8 38 0,0
01.04.2020 01:00:00 0,8 -2,5 -2,9 4 2 11 6 N 1028,4 34 0,0
01.04.2020 00:00:00 0,1 -3,2 -1,4 7 4 14 8 NNE 1028,8 44 0,0
31.03.2020 23:00:00 2,5 -3,0 -0,3 11 6 18 10 NNE 1029,0 45 0,0
31.03.2020 22:00:00 1,7 -2,1 0,0 11 6 14 8 N 1029,4 39 0,0
31.03.2020 21:00:00 2,8 -0,7 2,0 11 6 29 16 N 1029,6 36 0,0
31.03.2020 20:00:00 5,3 0,0 4,7 22 12 32 18 N 1029,7 32 0,0
31.03.2020 19:00:00 6,3 0,6 6,1 25 14 43 23 N 1029,9 30 0,0
31.03.2020 18:00:00 7,4 0,2 8,3 18 10 32 18 NNE 1030,0 34 0,0
31.03.2020 17:00:00 8,3 -2,5 9,1 18 10 32 18 NE 1030,4 35 0,0
31.03.2020 16:00:00 7,9 -4,1 9,3 22 12 32 18 NE 1031,1 35 0,0
31.03.2020 15:00:00 7,7 -4,3 9,7 18 10 32 18 NNE 1031,7 36 0,0
31.03.2020 14:00:00 7,8 -3,9 9,6 18 10 32 18 NE 1032,0 29 0,0
31.03.2020 13:00:00 7,0 -5,3 8,7 22 12 36 19 ENE 1032,2 34 0,0
31.03.2020 12:00:00 6,3 -4,2 7,9 25 14 36 19 ENE 1032,7 39 0,0
31.03.2020 11:00:00 5,9 -2,7 7,0 22 12 32 18 ENE 1032,9 40 0,0
31.03.2020 10:00:00 4,7 -2,4 5,3 18 10 29 16 ENE 1032,8 33 0,0
31.03.2020 09:00:00 2,9 -2,0 2,7 14 8 22 12 ENE 1032,7 40 0,0
31.03.2020 08:00:00 1,7 -2,0 0,5 14 8 18 10 ENE 1032,1 39 0,0
31.03.2020 07:00:00 1,0 -1,6 -0,1 11 6 22 12 NE 1031,5 35 0,0
31.03.2020 06:00:00 2,3 0,1 1,2 14 8 22 12 ENE 1031,1 27 0,0
31.03.2020 05:00:00 2,0 0,6 0,6 11 6 18 10 NE 1030,6 17 0,0
31.03.2020 04:00:00 2,4 1,0 1,0 11 6 18 10 NE 1030,3 17 0,0
31.03.2020 03:00:00 3,4 1,8 1,8 11 6 18 10 NE 1030,1 18 0,0
31.03.2020 02:00:00 3,6 1,7 2,3 11 6 22 12 NNE 1029,9 19 0,0
31.03.2020 01:00:00 2,5 1,1 1,0 14 8 14 8 N 1029,5 20 0,0
31.03.2020 00:00:00 3,4 1,0 2,5 11 6 18 10 NNE 1029,4 31 0,0
30.03.2020 23:00:00 4,4 1,8 3,2 14 8 29 16 NNE 1029,2 21 0,0
30.03.2020 22:00:00 5,2 2,5 4,3 18 10 29 16 N 1029,0 23 0,0
30.03.2020 21:00:00 5,4 3,0 4,6 18 10 32 18 N 1028,4 19 0,0
30.03.2020 20:00:00 6,0 3,2 5,5 22 12 32 18 N 1028,3 21 0,0
30.03.2020 19:00:00 6,6 4,1 5,9 14 8 40 21 NNW 1028,6 25 0,1
30.03.2020 18:00:00 7,9 3,5 7,8 25 14 36 19 NNW 1028,7 20 0,0
30.03.2020 17:00:00 8,4 3,6 8,3 25 14 36 19 NNW 1029,1 20 0,0
30.03.2020 16:00:00 8,1 3,2 8,9 22 12 40 21 N 1029,6 23 0,0
30.03.2020 15:00:00 9,0 2,7 10,3 25 14 36 19 N 1030,2 20 0,0
30.03.2020 14:00:00 8,4 2,5 7,9 22 12 36 19 N 1030,6 28 0,0
30.03.2020 13:00:00 7,1 3,4 7,5 22 12 32 18 N 1031,0 21 0,2
30.03.2020 12:00:00 6,4 3,3 7,9 14 8 25 14 NW 1031,6 16 0,0
30.03.2020 11:00:00 5,9 2,6 6,3 14 8 25 14 NW 1032,1 21 0,0
30.03.2020 10:00:00 5,7 1,1 5,7 14 8 25 14 NW 1032,5 31 0,0
30.03.2020 09:00:00 2,5 0,4 1,3 4 2 11 6 SW 1032,8 25 0,0
30.03.2020 08:00:00 -2,3 -4,0 -3,9 4 2 7 4 SW 1033,1 23 0,0
30.03.2020 07:00:00 -2,2 -4,1 -3,2 4 2 11 6 WSW 1033,5 36 0,0
30.03.2020 06:00:00 -1,2 -3,3 -2,3 7 4 14 8 W 1033,9 33 0,0
30.03.2020 05:00:00 -2,3 -4,2 -3,6 4 2 4 2 W 1034,4 27 0,0
30.03.2020 04:00:00 -4,0 -5,9 -5,9 4 2 7 4 W 1035,2 30 0,0
30.03.2020 03:00:00 -3,8 -5,7 -5,7 4 2 7 4 W 1035,9 34 0,0
30.03.2020 02:00:00 -1,6 -5,4 -4,4 7 4 14 8 N 1036,6 43 0,0
30.03.2020 01:00:00 -1,2 -5,3 -2,9 11 6 18 10 N 1036,7 32 0,0
30.03.2020 00:00:00 1,1 -5,1 -0,1 14 8 25 14 N 1037,0 41 0,0
29.03.2020 23:00:00 2,7 -5,6 1,7 22 12 43 23 NNE 1036,9 39 0,0
29.03.2020 22:00:00 3,3 -6,3 2,2 25 14 47 25 NE 1036,9 39 0,0
29.03.2020 21:00:00 3,7 -6,3 3,1 29 16 50 27 NNE 1036,4 38 0,0
29.03.2020 20:00:00 3,8 -6,7 2,9 32 18 50 27 NNE 1035,8 44 0,0
29.03.2020 19:00:00 4,3 -7,2 3,9 36 19 61 33 NNE 1035,3 33 0,0
29.03.2020 18:00:00 5,1 -8,2 5,2 36 19 54 29 NNE 1034,6 31 0,0
29.03.2020 17:00:00 5,7 -8,2 6,1 36 19 65 35 NNE 1034,3 30 0,0
29.03.2020 16:00:00 6,1 -8,1 6,8 36 19 68 37 NE 1034,1 26 0,0
29.03.2020 15:00:00 6,2 -7,4 6,6 43 23 68 37 NNE 1033,8 25 0,0
29.03.2020 14:00:00 6,7 -6,6 7,4 43 23 68 37 NNE 1033,6 30 0,0
29.03.2020 13:00:00 6,8 -6,5 7,7 40 21 76 41 NNE 1033,4 24 0,0
29.03.2020 12:00:00 6,1 -5,7 6,9 43 23 65 35 NNE 1033,0 22 0,0
29.03.2020 11:00:00 6,9 -3,7 7,2 36 19 65 35 NNE 1032,5 31 0,0
29.03.2020 10:00:00 5,7 -1,6 5,7 40 21 58 31 NNE 1031,9 19 0,0
29.03.2020 09:00:00 5,9 0,5 5,8 29 16 40 21 NNE 1030,8 19 0,0
29.03.2020 08:00:00 4,5 -1,3 4,1 29 16 47 25 NNE 1030,0 32 0,0
29.03.2020 07:00:00 4,5 0,8 3,6 22 12 32 18 NNE 1029,2 12 0,0
29.03.2020 06:00:00 4,3 0,0 3,5 18 10 43 23 NNE 1029,4 19 0,0
29.03.2020 05:00:00 3,8 0,8 3,4 18 10 36 19 NE 1029,1 18 0,1
29.03.2020 04:00:00 4,5 0,6 4,1 18 10 58 31 NNE 1029,0 14 0,0
29.03.2020 03:00:00 5,4 0,2 5,1 36 19 58 31 N 1029,0 11 0,0
29.03.2020 02:00:00 5,6 -1,6 4,7 40 21 54 29 N 1029,1 14 0,0
29.03.2020 01:00:00 4,7 -1,8 3,9 25 14 50 27 N 1029,3 25 0,0
29.03.2020 00:00:00 5,4 -1,9 4,9 32 18 50 27 N 1029,4 22 0,0
28.03.2020 23:00:00 6,0 -0,2 5,5 25 14 43 23 NNE 1029,2 18 0,0
28.03.2020 22:00:00 6,1 0,8 5,6 32 18 50 27 NNE 1028,8 19 0,0
28.03.2020 21:00:00 6,1 1,1 5,4 25 14 47 25 N 1028,2 20 0,0
28.03.2020 20:00:00 6,7 2,8 6,2 40 21 58 31 N 1027,3 15 0,0
28.03.2020 19:00:00 7,6 3,5 7,3 36 19 61 33 N 1026,7 14 0,0
28.03.2020 18:00:00 8,4 3,8 8,6 40 21 50 27 N 1026,6 15 0,0
28.03.2020 17:00:00 10,1 1,9 10,7 32 18 50 27 NNE 1026,2 25 0,0
28.03.2020 16:00:00 10,7 3,2 11,5 29 16 47 25 NNE 1026,2 26 0,0
28.03.2020 15:00:00 11,2 3,6 12,1 25 14 43 23 NNE 1026,3 26 0,0
28.03.2020 14:00:00 11,0 2,2 12,2 29 16 43 23 NE 1026,4 20 0,0
28.03.2020 13:00:00 10,6 1,0 11,7 32 18 43 23 NNE 1026,3 16 0,0
28.03.2020 12:00:00 10,7 3,2 11,3 25 14 43 23 NE 1026,0 15 0,0
28.03.2020 11:00:00 9,6 2,8 10,1 29 16 43 23 NE 1025,6 15 0,0
28.03.2020 10:00:00 8,1 2,3 8,5 22 12 36 19 NE 1025,3 14 0,0
28.03.2020 09:00:00 6,5 2,0 6,1 25 14 36 19 NE 1024,4 13 0,0
28.03.2020 08:00:00 5,3 1,9 4,3 18 10 32 18 NNE 1024,0 11 0,0
28.03.2020 07:00:00 5,4 1,4 4,4 18 10 36 19 NE 1023,1 12 0,0
28.03.2020 06:00:00 5,7 2,1 4,7 22 12 32 18 NE 1022,9 11 0,0
28.03.2020 05:00:00 5,9 2,3 5,0 18 10 32 18 NE 1022,7 11 0,0
28.03.2020 04:00:00 6,1 2,3 5,3 22 12 36 19 NE 1022,6 12 0,0
28.03.2020 03:00:00 6,8 2,4 5,8 22 12 32 18 NE 1022,4 13 0,0
28.03.2020 02:00:00 6,9 2,4 6,0 22 12 36 19 NE 1022,3 13 0,0
28.03.2020 01:00:00 7,2 2,5 6,2 18 10 32 18 NNE 1022,4 13 0,0
28.03.2020 00:00:00 7,6 2,4 6,5 18 10 32 18 NE 1022,5 13 0,0
27.03.2020 23:00:00 7,9 2,5 6,7 18 10 32 18 NE 1022,3 13 0,0
27.03.2020 22:00:00 8,2 3,2 7,3 22 12 36 19 NE 1022,0 13 0,0
27.03.2020 21:00:00 8,9 3,6 8,1 22 12 36 19 NNE 1021,5 13 0,0
27.03.2020 20:00:00 10,0 3,7 9,1 22 12 36 19 NNE 1020,8 14 0,0
27.03.2020 19:00:00 11,5 3,3 10,8 22 12 40 21 NNE 1020,1 15 0,0
27.03.2020 18:00:00 13,3 1,6 12,9 25 14 47 25 NE 1019,9 21 0,0
27.03.2020 17:00:00 13,4 0,7 13,3 25 14 40 21 NE 1020,2 18 0,0
27.03.2020 16:00:00 13,0 0,3 13,5 25 14 40 21 NE 1020,5 17 0,0
27.03.2020 15:00:00 12,5 0,5 13,1 25 14 40 21 NE 1021,0 17 0,0
27.03.2020 14:00:00 11,4 0,4 12,1 29 16 43 23 NE 1021,6 17 0,0
27.03.2020 13:00:00 10,3 0,5 11,1 25 14 40 21 NE 1022,0 19 0,0
27.03.2020 12:00:00 9,4 -0,6 10,3 29 16 40 21 NE 1022,2 18 0,0
27.03.2020 11:00:00 8,6 -0,1 9,0 18 10 32 18 NE 1022,5 18 0,0
27.03.2020 10:00:00 6,3 0,0 6,7 18 10 29 16 NE 1022,5 20 0,0
27.03.2020 09:00:00 4,8 -0,7 4,5 14 8 25 14 NE 1022,8 21 0,0
27.03.2020 08:00:00 3,6 -1,2 2,3 14 8 25 14 NE 1022,8 10 0,0
27.03.2020 07:00:00 3,6 -1,6 2,3 18 10 25 14 NE 1022,7 20 0,0
27.03.2020 06:00:00 3,9 -1,5 2,7 14 8 29 16 NE 1022,6 18 0,0
27.03.2020 05:00:00 4,1 -1,5 2,8 14 8 22 12 NE 1022,5 19 0,0
27.03.2020 04:00:00 4,5 -1,9 3,0 14 8 22 12 NE 1022,7 21 0,0
27.03.2020 03:00:00 4,7 -2,1 3,1 11 6 22 12 NE 1023,0 23 0,0
27.03.2020 02:00:00 4,7 -2,9 2,7 14 8 22 12 NE 1023,0 22 0,0
27.03.2020 01:00:00 5,2 -3,2 3,8 14 8 25 14 NE 1023,1 24 0,0
27.03.2020 00:00:00 6,3 -3,6 4,2 18 10 25 14 ENE 1023,2 24 0,0
26.03.2020 23:00:00 6,2 -3,2 4,4 14 8 22 12 NE 1023,5 26 0,0
26.03.2020 22:00:00 6,6 -3,3 4,5 14 8 25 14 ENE 1023,6 25 0,0
26.03.2020 21:00:00 7,9 -3,5 6,1 18 10 29 16 ENE 1023,2 27 0,0
26.03.2020 20:00:00 8,4 -3,7 7,0 18 10 36 19 ENE 1022,6 27 0,0
26.03.2020 19:00:00 9,7 -3,8 8,7 22 12 40 21 ENE 1022,4 27 0,0
26.03.2020 18:00:00 10,3 -3,5 10,1 25 14 40 21 ENE 1022,4 20 0,0
26.03.2020 17:00:00 10,6 -2,8 10,8 25 14 36 19 NE 1022,5 22 0,0
26.03.2020 16:00:00 10,2 -3,3 11,0 29 16 40 21 NE 1023,0 23 0,0
26.03.2020 15:00:00 10,5 -4,5 11,5 22 12 36 19 NE 1023,4 23 0,0
26.03.2020 14:00:00 9,7 -4,3 10,7 25 14 36 19 ENE 1023,8 20 0,0
26.03.2020 13:00:00 9,1 -5,5 10,6 25 14 36 19 E 1024,3 23 0,0
26.03.2020 12:00:00 8,4 -3,9 9,4 22 12 29 16 E 1024,7 20 0,0
26.03.2020 11:00:00 - - - - - - - - - - -

tt = Température de l'air
td = dewpoint
tt 5cm = Température de l'air 5cm
ff = Vitesse du vent
fx = gusts
dd = Direction du vent
ppp = reduced air pressure
vv = visibility
rr = Quantités de précipitations

stations d'obs. à proximité